CW0069 Weather Reports


Display with metric or nautical units.
time (UTC)temp
F
wind
direction
speed
MPH
gust
MPH
rain 1hr
in
rain 24hr
in
rain mn
in
humidity
%
barometer
mb
20260503000904 74 27 0.0 0.0 0.00 0.00 0.00 26 1016.9
20260502235904 75 27 1.0 2.0 0.00 0.00 0.00 28 1017.0
20260502235404 75 27 0.0 0.0 0.00 0.00 0.00 26 1017.1
20260502234904 75 27 0.0 2.0 0.00 0.00 0.00 24 1017.1
20260502234404 75 27 1.0 3.0 0.00 0.00 0.00 24 1017.1
20260502233904 76 336 0.0 0.0 0.00 0.00 0.00 24 1017.1
20260502233404 76 336 1.0 2.0 0.00 0.00 0.00 25 1017.2
20260502232904 76 336 2.0 5.0 0.00 0.00 0.00 25 1017.3
20260502232404 76 14 2.0 5.0 0.00 0.00 0.00 25 1017.2
20260502231904 76 346 3.0 5.0 0.00 0.00 0.00 26 1017.2
20260502231404 77 333 3.0 8.0 0.00 0.00 0.00 24 1017.3
20260502230906 77 32 2.0 5.0 0.00 0.00 0.00 25 1017.3
20260502230403 77 351 3.0 5.0 0.00 0.00 0.00 23 1017.3
20260502225408 77 15 4.0 7.0 0.00 0.00 0.00 26 1017.4
20260502224903 77 290 3.0 3.0 0.00 0.00 0.00 23 1017.3
20260502224404 77 11 2.0 5.0 0.00 0.00 0.00 25 1017.4
20260502223904 77 50 3.0 8.0 0.00 0.00 0.00 24 1017.4
20260502223404 77 358 5.0 9.0 0.00 0.00 0.00 23 1017.5
20260502222904 77 279 2.0 10.0 0.00 0.00 0.00 25 1017.5
20260502221904 78 271 2.0 7.0 0.00 0.00 0.00 23 1017.6
20260502221403 78 323 0.0 5.0 0.00 0.00 0.00 22 1017.5
20260502220404 78 346 5.0 8.0 0.00 0.00 0.00 23 1017.6
20260502215904 78 252 2.0 6.0 0.00 0.00 0.00 25 1017.6
20260502215404 78 249 2.0 5.0 0.00 0.00 0.00 24 1017.7
20260502214903 78 271 3.0 7.0 0.00 0.00 0.00 26 1017.7
20260502214404 78 11 2.0 9.0 0.00 0.00 0.00 25 1017.8
20260502213903 78 298 2.0 8.0 0.00 0.00 0.00 24 1017.8
20260502212904 78 282 5.0 8.0 0.00 0.00 0.00 25 1017.9
20260502211904 77 277 2.0 8.0 0.00 0.00 0.00 26 1018.0
20260502210904 76 311 4.0 9.0 0.00 0.00 0.00 25 1018.2
20260502210404 76 320 3.0 7.0 0.00 0.00 0.00 28 1018.3
20260502205904 76 39 2.0 8.0 0.00 0.00 0.00 28 1018.3
20260502205404 76 71 3.0 8.0 0.00 0.00 0.00 27 1018.4
20260502204904 76 248 4.0 8.0 0.00 0.00 0.00 25 1018.4
20260502204403 76 340 2.0 10.0 0.00 0.00 0.00 25 1018.4
20260502203404 76 342 5.0 9.0 0.00 0.00 0.00 25 1018.5
20260502201903 76 278 6.0 10.0 0.00 0.00 0.00 26 1018.7
20260502201404 76 35 3.0 10.0 0.00 0.00 0.00 27 1018.7
20260502200903 76 303 5.0 10.0 0.00 0.00 0.00 29 1018.8
20260502200403 76 334 6.0 10.0 0.00 0.00 0.00 26 1018.9
20260502195904 75 276 2.0 9.0 0.00 0.00 0.00 29 1018.9
20260502195403 75 296 5.0 8.0 0.00 0.00 0.00 27 1019.0
20260502194904 75 306 4.0 8.0 0.00 0.00 0.00 25 1019.1
20260502194404 75 283 5.0 10.0 0.00 0.00 0.00 26 1019.2
20260502193904 75 333 7.0 12.0 0.00 0.00 0.00 26 1019.2
20260502193403 75 346 5.0 9.0 0.00 0.00 0.00 26 1019.2
20260502192404 75 351 7.0 13.0 0.00 0.00 0.00 26 1019.3
20260502191903 75 347 3.0 9.0 0.00 0.00 0.00 25 1019.4
20260502191404 75 348 3.0 12.0 0.00 0.00 0.00 26 1019.5
20260502190904 75 338 3.0 12.0 0.00 0.00 0.00 26 1019.6
20260502190404 74 339 8.0 15.0 0.00 0.00 0.00 26 1019.6
20260502185904 74 280 6.0 10.0 0.00 0.00 0.00 25 1019.6
20260502185403 74 340 2.0 12.0 0.00 0.00 0.00 25 1019.7
20260502184904 74 339 7.0 13.0 0.00 0.00 0.00 24 1019.7
20260502184409 74 316 5.0 8.0 0.00 0.00 0.00 24 1019.8
20260502183403 74 285 6.0 9.0 0.00 0.00 0.00 21 1019.9
20260502182903 74 291 6.0 10.0 0.00 0.00 0.00 22 1020.0
20260502182403 74 263 7.0 10.0 0.00 0.00 0.00 21 1020.0
20260502181904 74 285 7.0 12.0 0.00 0.00 0.00 24 1020.1
20260502181404 73 342 7.0 10.0 0.00 0.00 0.00 25 1020.1
20260502180903 73 286 5.0 10.0 0.00 0.00 0.00 21 1020.2
20260502180404 73 242 2.0 7.0 0.00 0.00 0.00 27 1020.2
20260502170405 70 326 4.0 12.0 0.00 0.00 0.00 30 1020.9
20260502163905 69 317 6.0 12.0 0.00 0.00 0.00 29 1021.0
20260502163405 69 315 8.0 12.0 0.00 0.00 0.00 30 1021.0
20260502162905 69 299 7.0 10.0 0.00 0.00 0.00 31 1020.9
20260502162405 69 280 6.0 10.0 0.00 0.00 0.00 33 1020.9
20260502161405 69 245 3.0 7.0 0.00 0.00 0.00 35 1020.9
20260502160904 68 298 5.0 8.0 0.00 0.00 0.00 35 1020.9
20260502160405 68 279 7.0 9.0 0.00 0.00 0.00 35 1020.9
20260502151905 65 276 0.0 7.0 0.00 0.00 0.00 47 1020.8
20260502151405 65 272 4.0 7.0 0.00 0.00 0.00 48 1020.8
20260502150905 64 309 3.0 6.0 0.00 0.00 0.00 47 1020.7
20260502150405 64 307 2.0 7.0 0.00 0.00 0.00 47 1020.6
20260502130405 57 287 3.0 7.0 0.00 0.00 0.00 62 1019.8
20260502123405 55 310 3.0 3.0 0.00 0.00 0.00 65 1019.2
20260502122906 55 314 2.0 3.0 0.00 0.00 0.00 65 1019.0
20260502122405 54 313 0.0 2.0 0.00 0.00 0.00 65 1019.1
20260502121905 54 324 2.0 3.0 0.00 0.00 0.00 65 1019.0
20260502121405 54 328 2.0 3.0 0.00 0.00 0.00 66 1018.9
20260502120905 54 347 3.0 5.0 0.00 0.00 0.00 65 1018.9
20260502120405 53 350 2.0 3.0 0.00 0.00 0.00 65 1018.7
20260502115905 53 286 2.0 6.0 0.00 0.00 0.00 65 1018.6
20260502115405 53 293 2.0 3.0 0.00 0.00 0.00 65 1018.7
20260502114905 53 279 2.0 3.0 0.00 0.00 0.00 65 1018.6
20260502113905 53 292 2.0 3.0 0.00 0.00 0.00 65 1018.4
20260502113405 53 291 3.0 3.0 0.00 0.00 0.00 65 1018.3
20260502112905 53 300 3.0 6.0 0.00 0.00 0.00 65 1018.2
20260502111905 53 252 1.0 3.0 0.00 0.00 0.00 64 1018.1
20260502111404 53 258 2.0 3.0 0.00 0.00 0.00 64 1017.9
20260502110905 53 269 2.0 3.0 0.00 0.00 0.00 64 1017.9
20260502105906 53 263 2.0 3.0 0.00 0.00 0.00 64 1018.2
20260502105405 53 250 2.0 3.0 0.00 0.00 0.00 64 1018.1
20260502104904 53 249 2.0 3.0 0.00 0.00 0.00 64 1018.0
20260502103405 53 292 1.0 2.0 0.00 0.00 0.00 64 1017.7
20260502102905 53 291 2.0 3.0 0.00 0.00 0.00 64 1017.6
20260502102408 53 290 2.0 3.0 0.00 0.00 0.00 64 1017.5
20260502101905 54 287 2.0 3.0 0.00 0.00 0.00 64 1017.5
20260502100905 53 299 2.0 3.0 0.00 0.00 0.00 65 1017.6
20260502100406 53 307 2.0 6.0 0.00 0.00 0.00 65 1017.6
20260502091406 53 253 1.0 2.0 0.00 0.00 0.00 64 1017.4
20260502090905 53 262 0.0 2.0 0.00 0.00 0.00 64 1017.4
20260502090405 53 262 2.0 3.0 0.00 0.00 0.00 64 1017.5
20260502071405 54 0 0.0 0.0 0.00 0.00 0.00 63 1017.4
20260502070904 54 41 0.0 0.0 0.00 0.00 0.00 63 1017.4
20260502070405 54 30 0.0 0.0 0.00 0.00 0.00 63 1017.5
20260502064404 54 52 1.0 2.0 0.00 0.00 0.00 62 1017.7
20260502063905 54 66 1.0 2.0 0.00 0.00 0.00 61 1017.8
20260502063405 54 40 1.0 2.0 0.00 0.00 0.00 61 1017.7
20260502062905 54 55 1.0 2.0 0.00 0.00 0.00 61 1017.7
20260502062404 54 47 0.0 0.0 0.00 0.00 0.00 60 1017.7
20260502061408 55 67 0.0 0.0 0.00 0.00 0.00 61 1017.6
20260502060904 55 45 1.0 2.0 0.00 0.00 0.00 60 1017.6
20260502060405 55 30 0.0 0.0 0.00 0.00 0.00 60 1017.4
20260502055405 55 0 0.0 0.0 0.00 0.00 0.00 60 1017.5
20260502054905 55 12 0.0 0.0 0.00 0.00 0.00 60 1017.6
20260502054405 55 26 0.0 0.0 0.00 0.00 0.00 60 1017.6
20260502053905 55 58 0.0 0.0 0.00 0.00 0.00 60 1017.6
20260502053405 56 39 0.0 0.0 0.00 0.00 0.00 60 1017.6
20260502052404 56 60 0.0 0.0 0.00 0.00 0.00 60 1017.6
20260502051905 56 50 1.0 2.0 0.00 0.00 0.00 61 1017.6
20260502051405 56 65 1.0 2.0 0.00 0.00 0.00 61 1017.7
20260502050905 56 65 0.0 0.0 0.00 0.00 0.00 61 1017.7
20260502050404 56 65 0.0 0.0 0.00 0.00 0.00 61 1017.6
20260502045405 57 64 0.0 1.0 0.00 0.00 0.00 60 1017.5
20260502044905 57 64 1.0 2.0 0.00 0.00 0.00 60 1017.6
20260502044405 57 64 2.0 3.0 0.00 0.00 0.00 60 1017.5
20260502043905 57 64 1.0 2.0 0.00 0.00 0.00 60 1017.5
20260502043405 57 64 0.0 0.0 0.00 0.00 0.00 60 1017.3
20260502042904 57 66 0.0 0.0 0.00 0.00 0.00 60 1017.4
20260502042404 57 65 0.0 0.0 0.00 0.00 0.00 60 1017.4
20260502041904 57 65 0.0 0.0 0.00 0.00 0.00 60 1017.3
20260502041405 57 65 0.0 0.0 0.00 0.00 0.00 60 1017.3
20260502040905 58 65 0.0 0.0 0.00 0.00 0.00 61 1017.4
20260502040405 58 65 0.0 0.0 0.00 0.00 0.00 60 1017.4
20260502035405 58 65 2.0 2.0 0.00 0.00 0.00 60 1017.6
20260502034905 58 65 1.0 1.0 0.00 0.00 0.00 60 1017.6
20260502034405 58 65 1.0 1.0 0.00 0.00 0.00 60 1017.4
20260502033905 58 65 0.0 1.0 0.00 0.00 0.00 60 1017.5
20260502033405 58 65 1.0 2.0 0.00 0.00 0.00 60 1017.4
20260502032905 58 65 2.0 3.0 0.00 0.00 0.00 60 1017.3
20260502031905 58 65 2.0 3.0 0.00 0.00 0.00 61 1017.1
20260502031405 58 65 1.0 2.0 0.00 0.00 0.00 60 1017.2
20260502030905 58 65 1.0 2.0 0.00 0.00 0.00 60 1017.2
20260502030405 58 65 0.0 2.0 0.00 0.00 0.00 60 1017.1
20260502025905 58 65 1.0 2.0 0.00 0.00 0.00 60 1017.0
20260502025405 58 65 1.0 2.0 0.00 0.00 0.00 60 1017.0
20260502024405 59 65 0.0 0.0 0.00 0.00 0.00 59 1016.9
20260502023905 59 65 0.0 2.0 0.00 0.00 0.00 59 1016.9
20260502023405 59 65 0.0 1.0 0.00 0.00 0.00 59 1016.8
20260502022905 59 65 0.0 0.0 0.00 0.00 0.00 59 1016.8
20260502022404 59 65 0.0 0.0 0.00 0.00 0.00 59 1016.9
20260502021405 59 65 0.0 0.0 0.00 0.00 0.00 59 1016.7
20260502020905 59 65 0.0 1.0 0.00 0.00 0.00 59 1016.6
20260502020408 59 65 0.0 0.0 0.00 0.00 0.00 59 1016.5
20260502015905 59 65 0.0 1.0 0.00 0.00 0.00 59 1016.2
20260502015404 59 65 0.0 1.0 0.00 0.00 0.00 59 1016.1
20260502014905 59 65 0.0 1.0 0.00 0.00 0.00 59 1016.0
20260502014406 60 65 1.0 3.0 0.00 0.00 0.00 59 1015.9
20260502013905 60 65 1.0 3.0 0.00 0.00 0.00 59 1015.9
20260502013405 60 65 0.0 2.0 0.00 0.00 0.00 59 1015.8
20260502012904 60 65 0.0 0.0 0.00 0.00 0.00 59 1015.7
20260502012405 60 65 0.0 0.0 0.00 0.00 0.00 59 1015.6
20260502011905 60 65 0.0 0.0 0.00 0.00 0.00 58 1015.6
20260502010905 60 65 0.0 0.0 0.00 0.00 0.00 58 1015.5
20260502010404 60 65 0.0 0.0 0.00 0.00 0.00 58 1015.4
20260502005905 60 65 0.0 0.0 0.00 0.00 0.00 58 1015.4
20260502005405 60 65 0.0 0.0 0.00 0.00 0.00 58 1015.4
20260502004405 60 65 0.0 0.0 0.00 0.00 0.00 57 1015.2
20260502003905 60 65 0.0 0.0 0.00 0.00 0.00 57 1015.1
20260502003405 61 65 0.0 0.0 0.00 0.00 0.00 57 1015.2
20260502002905 61 65 0.0 0.0 0.00 0.00 0.00 57 1015.2
20260502001904 61 65 0.0 0.0 0.00 0.00 0.00 57 1015.1
20260502001405 61 65 1.0 2.0 0.00 0.00 0.00 57 1014.9